Location: Harbor Side
(32.6101°N, 117.0814°W)
Time: 07:14:51
(UTC+00:00)

ASTRO E2 - Pass Details

Date: 21 April 2021
Orbit: 507 x 514 km, 31.4° (Epoch: 13 May)

Event Time Altitude Azimuth Distance (km) Brightness Sun altitude
Exits shadow 12:31:30 10° 270° (W) 1,695 4.7 -8.9°
Maximum altitude 12:35:20 59° 191° (S) 582 2.8 -8.1°
Drops below altitude 10° 12:39:13 10° 111° (ESE) 1,711 6.2 -7.3°
Sets 12:41:28 0° 107° (ESE) 2,596 7.2 -6.9°
